Date String (YYYY-MM-DD hh:mm:ss) UTC,Instrument flags,absolute air pressure of the measurement (hPa),sample flow rate (lpm),inlet stack bypass flow (lpm),air temperature of the measurement (°C),ambient temperature measured by the external sensor (°C),aerosol sample conditioner tube jacket temperature (°C),OPC LED temperature (°C),internal box temperature (°C),relative humidity of the measurement (%),span deviation,mass concentration of particles derived from Lorenz-Mie calculation of OPC scattering (μg/m³),mass concentration of particles derived from Lorenz-Mie calculation of OPC scattering (μg/m³),mass concentration of particles derived from Lorenz-Mie calculation of OPC scattering (μg/m³)
DateTimeUTC,F1_M11,P_M11,Q1_M11,Q2_M11,T1_M11,T2_M11,T3_M11,T4_M11,T5_M11,U1_M11,ZSPAN_M11,X2_M11,X0_M11,X1_M11
2024-04-10 21:00:00,SystemResetWarning,0830.6,5.01,000.00,027.0,026.3,000.0,035.4,028.8,013.5,0000.0,0003.51,0009.47,0001.93
2024-04-10 21:01:00,SystemResetWarning,0830.6,5.02,000.00,027.0,026.3,000.0,035.4,028.8,013.5,0000.0,0003.53,0009.53,0001.94
2024-04-10 21:02:00,SystemResetWarning,0830.6,5.01,000.00,027.0,026.3,000.0,035.4,028.8,013.3,0000.0,0003.50,0009.75,0001.92
2024-04-10 21:03:00,SystemResetWarning,0830.6,4.99,000.00,027.0,026.3,000.0,035.4,028.8,013.3,0000.0,0003.47,0008.85,0001.92
2024-04-10 21:04:00,SystemResetWarning,0830.6,4.98,000.00,027.0,026.3,000.0,035.4,028.8,013.1,0000.0,0003.44,0008.84,0001.90
2024-04-10 21:05:00,SystemResetWarning,0830.6,5.00,000.00,027.0,026.3,000.0,035.4,028.8,013.0,0000.0,0003.44,0009.30,0001.91
2024-04-10 21:06:00,SystemResetWarning,0830.6,5.00,000.00,027.0,026.3,000.0,035.4,028.8,013.2,0000.0,0003.45,0009.59,0001.90
2024-04-10 21:07:00,SystemResetWarning,0830.5,5.01,000.00,027.0,026.3,000.0,035.4,028.8,013.0,0000.0,0003.42,0009.63,0001.90
2024-04-10 21:08:00,SystemResetWarning,0830.6,5.01,000.00,027.0,026.3,000.0,035.4,028.8,013.0,0000.0,0003.41,0009.49,0001.90
2024-04-10 21:09:00,SystemResetWarning,0830.7,4.99,000.00,027.0,026.3,000.0,035.4,028.9,013.0,0000.0,0003.47,0009.67,0001.93
2024-04-10 21:10:00,SystemResetWarning,0830.5,4.99,000.00,027.0,026.4,000.0,035.4,028.9,013.2,0000.0,0003.49,0010.39,0001.96
2024-04-10 21:11:00,SystemResetWarning,0830.4,5.00,000.00,027.0,026.4,000.0,035.4,028.9,013.2,0000.0,0003.47,0009.96,0001.99
2024-04-10 21:12:00,SystemResetWarning,0830.4,5.00,000.00,027.0,025.5,000.0,035.5,028.3,012.9,0000.0,0003.48,0011.10,0002.00
2024-04-10 21:13:00,SystemResetWarning,0830.4,5.00,000.00,026.5,023.1,000.0,035.5,027.0,013.3,0000.0,0003.44,0011.45,0002.02
2024-04-10 21:14:00,SystemResetWarning,0830.3,5.00,000.00,026.0,022.3,000.0,035.4,026.4,013.6,0000.0,0003.45,0011.57,0002.04
2024-04-10 21:15:00,SystemResetWarning,0830.3,5.02,000.00,025.8,022.6,000.0,035.2,026.5,013.6,0000.0,0003.47,0012.20,0002.09
2024-04-10 21:16:00,SystemResetWarning,0830.3,5.00,000.00,025.7,023.0,000.0,035.0,026.8,013.5,0000.0,0003.49,0012.07,0002.11
2024-04-10 21:17:00,SystemResetWarning,0830.3,4.99,000.00,025.7,023.4,000.0,034.9,027.1,013.4,0000.0,0003.50,0011.77,0002.13
2024-04-10 21:18:00,SystemResetWarning,0830.3,5.00,000.00,025.8,023.8,000.0,034.8,027.3,013.4,0000.0,0003.51,0011.76,0002.15
2024-04-10 21:19:00,SystemResetWarning,0830.3,5.01,000.00,025.8,024.1,000.0,034.7,027.4,013.4,0000.0,0003.51,0012.23,0002.18
2024-04-10 21:20:00,SystemResetWarning,0830.3,5.00,000.00,025.8,024.4,000.0,034.7,027.5,013.5,0000.0,0003.47,0012.92,0002.18
2024-04-10 21:21:00,SystemResetWarning,0830.3,5.00,000.00,025.9,024.6,000.0,034.6,027.6,013.8,0000.0,0003.51,0012.45,0002.17
2024-04-10 21:22:00,SystemResetWarning,0830.4,5.00,000.00,025.9,024.8,000.0,034.6,027.7,013.9,0000.0,0003.55,0012.20,0002.17
2024-04-10 21:23:00,SystemResetWarning,0830.4,5.00,000.00,025.9,025.0,000.0,034.6,027.8,013.9,0000.0,0003.51,0011.35,0002.16
2024-04-10 21:24:00,SystemResetWarning,0830.4,5.00,000.00,026.0,025.1,000.0,034.6,027.8,013.9,0000.0,0003.51,0010.79,0002.17
2024-04-10 21:25:00,SystemResetWarning,0830.4,5.00,000.00,026.0,025.2,000.0,034.5,027.9,013.8,0000.0,0003.52,0010.78,0002.16
2024-04-10 21:26:00,SystemResetWarning,0830.6,5.00,000.00,026.0,025.3,000.0,034.5,028.0,013.8,0000.0,0003.57,0010.29,0002.15
2024-04-10 21:27:00,SystemResetWarning,0830.7,5.01,000.00,026.1,025.4,000.0,034.5,028.0,013.8,0000.0,0003.58,0010.17,0002.16
2024-04-10 21:28:00,SystemResetWarning,0830.4,4.99,000.00,026.1,025.5,000.0,034.6,028.0,013.8,0000.0,0003.56,0010.68,0002.15
2024-04-10 21:29:00,SystemResetWarning,0830.5,4.99,000.00,026.2,025.5,000.0,034.6,028.1,013.7,0000.0,0003.63,0011.12,0002.15
2024-04-10 21:30:00,SystemResetWarning,0830.7,5.00,000.00,026.2,025.6,000.0,034.6,028.1,013.6,0000.0,0003.65,0010.70,0002.14
2024-04-10 21:31:00,SystemResetWarning,0830.4,5.01,000.00,026.2,025.6,000.0,034.6,028.2,013.7,0000.0,0003.69,0009.90,0002.14
2024-04-10 21:32:00,SystemResetWarning,0830.4,5.00,000.00,026.3,025.7,000.0,034.6,028.2,013.8,0000.0,0003.62,0009.67,0002.14
2024-04-10 21:33:00,SystemResetWarning,0830.4,5.00,000.00,026.3,025.7,000.0,034.6,028.2,014.1,0000.0,0003.57,0009.63,0002.12
2024-04-10 21:34:00,SystemResetWarning,0830.4,5.00,000.00,026.3,025.8,000.0,034.7,028.3,014.4,0000.0,0003.56,0009.61,0002.11
2024-04-10 21:35:00,SystemResetWarning,0830.5,5.00,000.00,026.4,025.8,000.0,034.7,028.3,014.4,0000.0,0003.57,0009.85,0002.10
2024-04-10 21:36:00,SystemResetWarning,0830.5,4.99,000.00,026.4,025.8,000.0,034.7,028.3,014.3,0000.0,0003.57,0010.83,0002.10
2024-04-10 21:37:00,SystemResetWarning,0830.5,5.00,000.00,026.4,025.9,000.0,034.7,028.3,014.7,0000.0,0003.50,0010.77,0002.08
2024-04-10 21:38:00,SystemResetWarning,0830.5,5.00,000.00,026.4,025.9,000.0,034.7,028.3,014.6,0000.0,0003.45,0010.71,0002.03
2024-04-10 21:39:00,SystemResetWarning,0830.5,5.02,000.00,026.5,025.9,000.0,034.8,028.4,014.5,0000.0,0003.42,0010.64,0002.00
2024-04-10 21:40:00,SystemResetWarning,0830.6,5.00,000.00,026.5,025.9,000.0,034.8,028.4,014.5,0000.0,0003.41,0010.75,0002.00
2024-04-10 21:41:00,SystemResetWarning,0830.6,4.98,000.00,026.5,025.9,000.0,034.8,028.4,014.5,0000.0,0003.39,0011.09,0002.00
2024-04-10 21:42:00,SystemResetWarning,0830.6,5.00,000.00,026.5,026.0,000.0,034.8,028.4,014.3,0000.0,0003.34,0010.95,0001.98
2024-04-10 21:43:00,SystemResetWarning,0830.6,5.01,000.00,026.5,026.0,000.0,034.9,028.5,014.2,0000.0,0003.33,0011.00,0001.97
2024-04-10 21:44:00,SystemResetWarning,0830.6,5.01,000.00,026.6,026.0,000.0,034.9,028.5,014.3,0000.0,0003.37,0011.17,0001.99
2024-04-10 21:45:00,SystemResetWarning,0830.6,5.00,000.00,026.6,026.0,000.0,034.9,028.5,014.1,0000.0,0003.38,0012.31,0002.01
2024-04-10 21:46:00,SystemResetWarning,0830.6,4.99,000.00,026.6,026.0,000.0,034.9,028.5,014.1,0000.0,0003.40,0012.29,0002.02
2024-04-10 21:47:00,SystemResetWarning,0830.6,4.99,000.00,026.6,026.0,000.0,034.9,028.5,014.2,0000.0,0003.40,0011.20,0002.05
2024-04-10 21:48:00,SystemResetWarning,0830.6,4.99,000.00,026.6,026.0,000.0,035.0,028.5,014.1,0000.0,0003.42,0011.62,0002.07
2024-04-10 21:49:00,SystemResetWarning,0830.6,5.01,000.00,026.7,026.0,000.0,035.0,028.5,014.1,0000.0,0003.46,0011.64,0002.10
2024-04-10 21:50:00,SystemResetWarning,0830.6,5.01,000.00,026.7,026.1,000.0,035.0,028.6,014.1,0000.0,0003.47,0011.71,0002.11
2024-04-10 21:51:00,SystemResetWarning,0830.6,5.00,000.00,026.7,026.1,000.0,035.0,028.6,014.1,0000.0,0003.46,0011.17,0002.12
2024-04-10 21:52:00,SystemResetWarning,0830.6,5.01,000.00,026.7,026.1,000.0,035.0,028.6,013.9,0000.0,0003.46,0011.42,0002.12
2024-04-10 21:53:00,SystemResetWarning,0830.6,5.01,000.00,026.7,026.1,000.0,035.0,028.6,013.9,0000.0,0003.48,0012.11,0002.13
2024-04-10 21:54:00,SystemResetWarning,0830.6,5.00,000.00,026.7,026.1,000.0,035.1,028.6,013.9,0000.0,0003.49,0013.12,0002.14
2024-04-10 21:55:00,SystemResetWarning,0830.6,4.99,000.00,026.7,026.1,000.0,035.1,028.6,014.0,0000.0,0003.52,0013.47,0002.15
2024-04-10 21:56:00,SystemResetWarning,0830.6,4.99,000.00,026.8,026.1,000.0,035.1,028.6,014.0,0000.0,0003.54,0013.34,0002.16
2024-04-10 21:57:00,SystemResetWarning,0830.6,5.00,000.00,026.8,026.1,000.0,035.1,028.6,013.9,0000.0,0003.56,0012.14,0002.15
2024-04-10 21:58:00,SystemResetWarning,0830.6,5.01,000.00,026.8,026.1,000.0,035.1,028.6,014.3,0000.0,0003.56,0012.66,0002.14
2024-04-10 21:59:00,SystemResetWarning,0830.6,5.00,000.00,026.8,026.1,000.0,035.1,028.6,014.7,0000.0,0003.52,0012.59,0002.11
